Location: L'Union
(43.6635°N, 1.4699°E)
Time: 13:08:44
(UTC+02:00)

ISS - Visible Passes

Search period start: 30 July 2021 00:00
Search period end: 09 August 2021 00:00
Orbit: 419 x 421 km, 51.6° (Epoch: 30 July)

Date Brightness Start Highest point End Pass type
(mag) Time Alt. Az. Time Alt. Az. Time Alt. Az.
30 Jul -3.8 22:24:38 10° WNW 22:28:01 84° NE 22:30:19 19° ESE visible
31 Jul -1.0 00:02:39 10° W 00:03:16 12° WSW 00:03:16 12° WSW visible
31 Jul -2.1 23:14:35 10° W 23:17:16 22° SW 23:17:42 21° SSW visible
01 Aug -2.7 22:26:57 10° WNW 22:30:05 35° SW 22:32:12 17° SSE visible
03 Aug -1.2 22:30:13 10° W 22:31:55 13° SW 22:33:37 10° SSW visible
